STARLINK-2468 (48127 NORAD) Tracking and Keplerian Element Data

This shows tracking and keplerian element data for the satellite.

Feedback or suggestion? Click here.




ElementValue
Catalog48127
NameSTARLINK-2468
Epoch Orbit195
Epoch Day173.91668981
Epoch Year2021
RAAN336.4546
Inclination53.0519
Eccentricity0.0001483
Argument of Perigee101.6136
Mean Anonmoly340.3179
Mean Motion15.06285725
Decay Rate0.0017677
L11 48127U 21027AM 21173.91668981 .00176770 00000-0 11628-1 0 9993
L22 48127 53.0519 336.4546 0001483 101.6136 340.3179 15.06285725 1955

Live tracking and technical data element details for STARLINK-2468 (NORAD 48127). STARLINK-2468 can be tracked NOW for your location showing map with azimuth and elevation plus other details from your city location.

Track the satellite on the map from your city or location and see movement details for azimuth, elevation, latitude, longitude, range, height, and movement on the map or in text.







IsCatalogInMostPopularTable: catalog: 48127, numindb: 34
Update: records affected: 1



GetName: 48127 STARLINK-2468

Hit Count: updated at: Thu, 24 Jun 2021 03:08:34 GMT